Location: Broekland
(52.3610°N, 6.2005°E)
Time: 00:53:12
(UTC+00:00)

Cosmos 1408 Rocket - Pass Details

Date: 19 May 2025
Orbit: 594 x 625 km, 82.6° (Epoch: 23 June)

Event Time Altitude Azimuth Distance (km) Brightness Sun altitude
Rises 22:54:09 0° 347° (NNW) 2,889 8.8 -17.2°
Reaches altitude 10° 22:56:24 10° 346° (NNW) 1,974 7.4 -17.2°
Maximum altitude 23:00:44 71° 262° (W) 644 3.6 -17.3°
Enters shadow 23:02:27 35° 188° (S) 979 4.0 -17.4°
